sat.trackr.live / text

‹ back to catalog

TOMORROW-S4

NORAD 62386 · 2024-247K

PAYLOAD ACTIVE UNKNOWN

§ Identity

Operator
Country
US
Launch date
2024-12-21
Launch site
AFWTR
Launch vehicle
Mass (kg)
RCS (m²)

External: N2YO · Heavens-Above · Gunter

§ Orbital elements

Epoch: 2026-05-25T03:19:11.470080Z

Period
94.19 min
Inclination
44.9837°
Eccentricity
0.0004605
Mean motion
15.28803230 rev/d
Perigee alt
476.2 km
Apogee alt
482.5 km
Semi-major
6,857.5 km
B*
2.0340e-4
RAAN
59.2108°
Arg perigee
265.9563°
Mean anomaly
94.0794°
Rev number
7,942

§ Raw data

TOMORROW-S41 62386U 24247K   26145.13832720  .00005506  00000+0  20340-3 0  99952 62386  44.9837  59.2108 0004605 265.9563  94.0794 15.28803230 79425

JSON: /api/v1/satellites/62386 · /tle

For live sub-satellite position, see the globe view (requires WebGL).

§ Visibility from observer

Set your observer location to see the next 7 days of passes ≥ 10°. The values pass through the URL so the page stays shareable.

No JS? Fill the form by hand. The geolocation button needs JavaScript.